TimePST,TemperatureF,Dew PointF,Humidity,Sea Level PressureIn,VisibilityMPH,Wind Direction,Wind SpeedMPH,Gust SpeedMPH,PrecipitationIn,Events,Conditions,WindDirDegrees,DateUTC
12:56 AM,28.9,3.0,33,30.17,10.0,Calm,Calm,-,N/A,,Clear,0,2013-01-06 08:56:00
1:56 AM,30.0,9.0,41,30.15,10.0,Calm,Calm,-,N/A,,Partly Cloudy,0,2013-01-06 09:56:00
2:56 AM,43.0,24.1,47,30.11,10.0,SW,23.0,29.9,N/A,,Scattered Clouds,230,2013-01-06 10:56:00
3:56 AM,39.9,30.9,70,30.14,10.0,WSW,16.1,24.2,0.00,Rain,Light Rain,240,2013-01-06 11:56:00
4:56 AM,39.9,32.0,73,30.13,10.0,SW,10.4,-,0.00,,Mostly Cloudy,230,2013-01-06 12:56:00
5:56 AM,39.9,32.0,73,30.14,10.0,WSW,10.4,-,N/A,,Clear,250,2013-01-06 13:56:00
6:56 AM,39.0,30.9,73,30.15,10.0,SW,10.4,-,N/A,,Clear,230,2013-01-06 14:56:00
7:56 AM,41.0,33.1,73,30.17,10.0,WSW,11.5,-,N/A,,Clear,250,2013-01-06 15:56:00
8:56 AM,44.1,33.1,65,30.17,10.0,SW,12.7,21.9,N/A,,Clear,230,2013-01-06 16:56:00
9:56 AM,46.9,32.0,56,30.16,10.0,WSW,13.8,-,N/A,,Clear,240,2013-01-06 17:56:00
10:56 AM,48.0,32.0,54,30.14,10.0,WSW,17.3,-,N/A,,Clear,240,2013-01-06 18:56:00
11:56 AM,48.9,30.9,50,30.09,10.0,SW,19.6,-,N/A,,Clear,220,2013-01-06 19:56:00
12:56 PM,48.9,32.0,52,30.08,10.0,SSW,20.7,-,N/A,,Clear,210,2013-01-06 20:56:00
1:56 PM,51.1,30.9,46,30.05,10.0,SW,16.1,23.0,N/A,,Clear,230,2013-01-06 21:56:00
2:56 PM,46.9,33.1,59,30.04,10.0,SW,17.3,23.0,N/A,,Clear,230,2013-01-06 22:56:00
3:56 PM,46.9,34.0,61,30.04,10.0,WSW,16.1,-,N/A,,Overcast,250,2013-01-06 23:56:00
4:56 PM,44.1,34.0,68,30.04,10.0,WSW,12.7,-,N/A,,Partly Cloudy,240,2013-01-07 00:56:00
5:56 PM,43.0,34.0,71,30.05,10.0,WSW,11.5,-,N/A,,Mostly Cloudy,250,2013-01-07 01:56:00
6:56 PM,43.0,33.1,68,30.05,10.0,Calm,Calm,-,N/A,,Overcast,0,2013-01-07 02:56:00
7:56 PM,42.1,32.0,67,30.05,10.0,WNW,6.9,-,N/A,,Overcast,290,2013-01-07 03:56:00
8:56 PM,41.0,30.9,67,30.06,10.0,NW,3.5,-,N/A,,Overcast,310,2013-01-07 04:56:00
9:56 PM,41.0,32.0,70,30.07,10.0,NW,6.9,-,N/A,,Overcast,310,2013-01-07 05:56:00
10:56 PM,41.0,32.0,70,30.08,10.0,WNW,8.1,-,N/A,,Overcast,300,2013-01-07 06:56:00
11:56 PM,41.0,30.9,67,30.09,10.0,WNW,5.8,-,0.00,,Overcast,290,2013-01-07 07:56:00